Weather History for Baudette, MN

Change the Weather History Date:

Saturday, January 19, 2013

  Actual Average Record
Temperature  
Mean Temperature 2 °F -  
Max Temperature 14 °F 17 °F 39 °F (1942)
Min Temperature -11 °F -6 °F -41 °F (1970)
Degree Days  
Heating Degree Days 62    
Moisture  
Dew Point 2 °F    
Average Humidity 84    
Maximum Humidity 100    
Minimum Humidity 72    
Precipitation  
Precipitation 0.08 in - - ()
Sea Level Pressure  
Sea Level Pressure 29.81 in    
Wind  
Wind Speed 10 mph (NNW)    
Max Wind Speed 25 mph    
Max Gust Speed 36 mph    
Visibility 3 miles    
Events Fog , Snow    
Averages and records for this station are not official NWS values.
T = Trace of Precipitation, MM = Missing Value Source: NWS Daily Summary

Daily Weather History Graph

Daily Weather History Graph

Search for Another Location

Airport:

Trip Planner

Search our weather history database for the weather conditions in past years. The results will help you decide how hot, cold, wet, or windy it might be!

Date:

Astronomy

Jan. 19, 2013 Rise Set
Actual Time 8:02 AM CST 4:56 PM CST
Civil Twilight 7:27 AM CST 5:31 PM CST
Nautical Twilight 6:48 AM CST 6:10 PM CST
Astronomical Twilight 6:11 AM CST 6:48 PM CST
Moon 11:28 AM CST (1/19) 1:30 AM CST (1/19)
Length of Visible Light 10h 04m
Length of Day
8h 53m
First Quarter, 57% of the Moon is Illuminated
Jan 19
First Quarter
Jan 26
Full
Feb 3
Last Quarter
Feb 10
New
Feb 17
First Quarter

Hourly Weather History & Observations

Time (CST) Temp. Windchill Dew Point Humidity Pressure Visibility Wind Dir Wind Speed Gust Speed Precip Events Conditions
12:53 AM 10.9 °F 1.4 °F 8.1 °F 88% 29.74 in 10.0 mi East 5.8 mph - 0.00 in   Overcast
1:53 AM 12.0 °F - 9.0 °F 88% 29.74 in 6.0 mi Calm Calm - 0.00 in Snow Light Snow
2:09 AM 12.2 °F 6.1 °F 8.6 °F 85% 29.66 in 1.8 mi SE 3.5 mph - 0.00 in Snow Light Snow
2:30 AM 12.2 °F 6.1 °F 8.6 °F 85% 29.65 in 1.2 mi ESE 3.5 mph - 0.00 in Snow Light Snow
2:40 AM 12.2 °F 4.3 °F 10.4 °F 92% 29.65 in 1.0 mi East 4.6 mph - 0.00 in Snow Light Snow
2:45 AM 12.2 °F 4.3 °F 10.4 °F 92% 29.64 in 0.8 mi ESE 4.6 mph - 0.00 in Snow Light Snow
2:53 AM 12.0 °F 4.1 °F 10.0 °F 92% 29.72 in 0.5 mi ESE 4.6 mph - 0.01 in Fog , Snow Snow
3:06 AM 12.2 °F 2.9 °F 10.4 °F 92% 29.63 in 0.5 mi ESE 5.8 mph - 0.01 in Fog , Snow Snow
3:25 AM 12.2 °F 2.9 °F 10.4 °F 92% 29.61 in 1.0 mi ESE 5.8 mph - 0.03 in Snow Light Snow
3:46 AM 12.2 °F 6.1 °F 10.4 °F 92% 29.61 in 0.8 mi SE 3.5 mph - 0.04 in Snow Light Snow
3:53 AM 12.9 °F - 10.9 °F 92% 29.68 in 0.5 mi Calm Calm - 0.05 in Fog , Snow Light Snow
4:15 AM 12.2 °F 4.3 °F 10.4 °F 92% 29.57 in 1.2 mi SE 4.6 mph - 0.02 in Snow Light Snow
4:26 AM 12.2 °F 4.3 °F 10.4 °F 92% 29.57 in 1.0 mi ESE 4.6 mph - 0.02 in Snow Light Snow
4:36 AM 12.2 °F - 10.4 °F 92% 29.59 in 1.2 mi Calm Calm - 0.02 in Snow Light Snow
4:42 AM 12.2 °F - 10.4 °F 92% 29.58 in 2.0 mi Calm Calm - 0.02 in Snow Light Snow
4:53 AM 14.0 °F - 10.9 °F 88% 29.66 in 5.0 mi Calm Calm - 0.02 in Snow Light Snow
5:40 AM 14.0 °F - 10.4 °F 86% 29.58 in 10.0 mi Calm Calm - 0.00 in   Overcast
5:53 AM 14.0 °F - 10.0 °F 84% 29.65 in 10.0 mi Calm Calm - 0.00 in   Overcast
6:53 AM 12.9 °F 1.6 °F 12.0 °F 96% 29.67 in 3.0 mi NW 8.1 mph - N/A   Overcast
7:07 AM 12.2 °F 0.7 °F 12.2 °F 100% 29.59 in 2.5 mi NW 8.1 mph - N/A   Overcast
7:41 AM 12.2 °F 0.7 °F 12.2 °F 100% 29.59 in 3.0 mi NW 8.1 mph - N/A   Overcast
7:53 AM 12.9 °F 0.7 °F 12.0 °F 96% 29.67 in 5.0 mi NW 9.2 mph - N/A   Overcast
8:36 AM 12.2 °F -2.5 °F 10.4 °F 92% 29.61 in 1.8 mi NW 12.7 mph - 0.00 in Snow Light Snow
8:51 AM 10.4 °F -5.4 °F 8.6 °F 92% 29.63 in 1.5 mi NW 13.8 mph - 0.00 in Snow Light Snow
8:53 AM 10.9 °F -4.7 °F 8.1 °F 88% 29.71 in 1.5 mi NW 13.8 mph - 0.00 in Snow Light Snow
9:04 AM 10.4 °F -6.0 °F 6.8 °F 85% 29.64 in 2.0 mi NW 15.0 mph - 0.00 in Snow Light Snow
9:14 AM 10.4 °F -3.3 °F 6.8 °F 85% 29.65 in 1.5 mi NNW 10.4 mph - 0.00 in Snow Light Snow
9:25 AM 8.6 °F -9.5 °F 6.8 °F 92% 29.67 in 2.0 mi NW 17.3 mph - 0.00 in Snow Light Snow
9:51 AM 8.6 °F -10.0 °F 5.0 °F 85% 29.68 in 4.0 mi NW 18.4 mph 24.2 mph 0.00 in Snow Light Snow
9:53 AM 9.0 °F -7.9 °F 5.0 °F 84% 29.76 in 4.0 mi NW 15.0 mph 24.2 mph 0.00 in Snow Light Snow
10:53 AM 7.0 °F -13.6 °F 3.0 °F 84% 29.79 in 5.0 mi NW 21.9 mph 27.6 mph 0.00 in   Overcast
11:13 AM 6.8 °F -12.9 °F 1.4 °F 79% 29.72 in 2.5 mi NW 19.6 mph 26.5 mph 0.00 in Snow Light Snow
11:24 AM 6.8 °F -12.4 °F 1.4 °F 79% 29.73 in 1.5 mi NW 18.4 mph 25.3 mph 0.00 in Snow Light Snow
11:29 AM 6.8 °F -12.4 °F 1.4 °F 79% 29.73 in 1.2 mi NNW 18.4 mph 24.2 mph 0.00 in Snow Light Snow
11:36 AM 6.8 °F -12.4 °F 1.4 °F 79% 29.73 in 2.0 mi NNW 18.4 mph 25.3 mph 0.00 in Snow Light Snow
11:46 AM 5.0 °F -15.2 °F -0.4 °F 78% 29.74 in 4.0 mi NNW 19.6 mph 26.5 mph N/A   Haze
11:53 AM 5.0 °F -16.2 °F -0.0 °F 80% 29.82 in 4.0 mi NNW 21.9 mph - 0.00 in   Haze
12:11 PM 5.0 °F -13.0 °F -0.4 °F 78% 29.75 in 2.5 mi NNW 15.0 mph 26.5 mph N/A   Haze
12:26 PM 3.2 °F -17.6 °F -0.4 °F 85% 29.75 in 1.5 mi NNW 19.6 mph 25.3 mph 0.00 in Snow Light Snow
12:42 PM 3.2 °F -15.9 °F -0.4 °F 85% 29.76 in 1.0 mi NNW 16.1 mph 27.6 mph 0.00 in Snow Light Snow
12:53 PM 3.0 °F -17.3 °F -0.9 °F 84% 29.86 in 0.8 mi NNW 18.4 mph 26.5 mph 0.00 in Snow Light Snow
1:53 PM 3.0 °F -19.7 °F -4.0 °F 73% 29.90 in 1.0 mi NNW 24.2 mph 32.2 mph 0.00 in   Overcast
1:58 PM 3.2 °F -18.6 °F -2.2 °F 78% 29.82 in 1.5 mi NNW 21.9 mph 32.2 mph 0.00 in   Overcast
2:08 PM 1.4 °F -21.0 °F -2.2 °F 85% 29.83 in 1.2 mi NNW 21.9 mph 31.1 mph 0.00 in   Overcast
2:14 PM 3.2 °F -16.5 °F -2.2 °F 78% 29.83 in 2.0 mi NNW 17.3 mph 31.1 mph 0.00 in   Haze
2:29 PM 3.2 °F -17.6 °F -2.2 °F 78% 29.84 in 1.2 mi NNW 19.6 mph 27.6 mph 0.00 in Snow Light Snow
2:40 PM 3.2 °F -17.6 °F -2.2 °F 78% 29.85 in 2.0 mi NNW 19.6 mph 28.8 mph 0.00 in   Haze
2:53 PM 1.9 °F -18.1 °F -4.0 °F 76% 29.95 in 2.0 mi NNW 17.3 mph 35.7 mph 0.00 in   Haze
3:04 PM 3.2 °F -19.0 °F -4.0 °F 72% 29.88 in 3.0 mi NNW 23.0 mph 34.5 mph N/A   Haze
3:43 PM 1.4 °F -22.3 °F -4.0 °F 78% 29.92 in 2.0 mi NNW 25.3 mph 33.4 mph 0.00 in   Overcast
3:53 PM 1.9 °F -19.2 °F -4.0 °F 76% 30.02 in 2.5 mi NNW 19.6 mph 35.7 mph 0.00 in   Haze
4:05 PM 1.4 °F -20.5 °F -5.8 °F 72% 29.95 in 4.0 mi NNW 20.7 mph 28.8 mph N/A   Haze
4:21 PM 1.4 °F -19.4 °F -2.2 °F 85% 29.97 in 1.8 mi NNW 18.4 mph 26.5 mph 0.00 in Snow Light Snow
4:31 PM 1.4 °F -19.9 °F -2.2 °F 85% 29.98 in 1.2 mi NNW 19.6 mph 31.1 mph 0.00 in Snow Light Snow
4:39 PM 3.2 °F -17.6 °F -2.2 °F 78% 29.99 in 2.0 mi NNW 19.6 mph 25.3 mph 0.00 in Snow Light Snow
4:53 PM 1.9 °F -19.2 °F -4.0 °F 76% 30.09 in 3.0 mi NNW 19.6 mph 32.2 mph 0.00 in   Haze
5:05 PM 1.4 °F -19.9 °F -4.0 °F 78% 30.02 in 4.0 mi NNW 19.6 mph 27.6 mph N/A   Haze
5:19 PM 1.4 °F -21.0 °F -4.0 °F 78% 30.03 in 6.0 mi NNW 21.9 mph 26.5 mph N/A   Haze
5:53 PM 1.0 °F -21.4 °F -5.1 °F 75% 30.14 in 5.0 mi NNW 21.9 mph 31.1 mph N/A   Haze
6:53 PM -0.9 °F -23.0 °F -8.0 °F 72% 30.20 in 10.0 mi NNW 19.6 mph 28.8 mph N/A   Partly Cloudy
7:53 PM -2.9 °F -24.4 °F -9.0 °F 75% 30.24 in 10.0 mi NNW 17.3 mph 25.3 mph N/A   Clear
8:53 PM -6.0 °F -27.0 °F -9.9 °F 83% 30.28 in 10.0 mi NW 15.0 mph 20.7 mph N/A   Partly Cloudy
9:53 PM -8.0 °F -29.6 °F -11.9 °F 83% 30.30 in 10.0 mi NW 15.0 mph - N/A   Clear
10:53 PM -9.4 °F -27.9 °F -14.8 °F 77% 30.21 in 10.0 mi NW 10.4 mph - N/A   Clear
11:53 PM -11.0 °F -26.2 °F -16.1 °F 78% 30.32 in 10.0 mi NW 6.9 mph - N/A   Clear